WFO RAH Logo

WFO RAH Text Data
RWRRAH
NORTH CAROLINA WEATHER ROUNDUP
NATIONAL WEATHER SERVICE RALEIGH NC
500 AM EST THU JAN 17 2008

NOTE: "FAIR" INDICATES FEW OR NO CLOUDS BELOW 12,000 FEET WITH NO
SIGNIFICANT WEATHER AND/OR OBSTRUCTIONS TO VISIBILITY.

NCZ001-053-055-056-065-067-171100-
WESTERN NORTH CAROLINA
  
CITY           SKY/WX    TMP DP  RH WIND       PRES   REMARKS
ASHEVILLE      LGT SNOW  28  27  96 S6        30.06F FOG     WCI  22  
JEFFERSON      LGT SNOW  25  21  86 E5        30.05F VSB 1   WCI  19  
MORGANTON      LGT SNOW  30  30 100 N6        30.18F WCI  24          
HICKORY        LGT SNOW  30  29  96 NE10      30.13F FOG     WCI  21  
RUTHERFORDTON  LGT SNOW  34  32  93 N3        30.13F                  
$$
 
NCZ021-022-025-041-071-084-088-171100-
CENTRAL NORTH CAROLINA
  
CITY           SKY/WX    TMP DP  RH WIND       PRES   REMARKS
CHARLOTTE      LGT RAIN  32  30  92 NE13      30.14F FOG     WCI  22  
GREENSBORO     LGT SNOW  30  28  93 NE9       30.19F FOG     WCI  22  
WINSTON-SALEM  LGT SNOW  31  28  89 E6        30.20F FOG     WCI  25  
RALEIGH-DURHAM FLURRIES  37  22  54 E7        30.24F WCI  32          
FORT BRAGG     FLURRIES  34  32  91 NE7       30.20F WCI  28          
FAYETTEVILLE   SNOW     N/A N/A N/A MISG        N/A                   
$$
 
NCZ011-015-027-028-043-044-047-080-103-171100-
NORTHEASTERN NORTH CAROLINA
  
CITY           SKY/WX    TMP DP  RH WIND       PRES   REMARKS
ROANOKE RAPIDS CLOUDY    36  26  67 E3        30.28F                  
ROCKY MT-WILSO CLOUDY    37  26  64 NE6       30.26F WCI  32          
GREENVILLE     FLURRIES  37  28  70 NE8       30.27F WCI  31          
WASHINGTON     LGT RAIN  39  28  65 NE7       30.28F WCI  34          
ELIZABETH CITY CLOUDY    39  29  67 NE8       30.31F WCI  33          
MANTEO         CLOUDY    43  34  70 NE9       30.30S                  
CAPE HATTERAS  CLOUDY    43  36  76 NE9       30.25F                  
$$
 
NCZ078-087-090-091-093-098-101-171100-
SOUTHEASTERN NORTH CAROLINA
  
CITY           SKY/WX    TMP DP  RH WIND       PRES   REMARKS
LUMBERTON      RAIN      34  33  96 E15       30.18F FOG     WCI  24  
KINSTON        LGT RAIN  36  32  87 NE8       30.25F WCI  29          
KENANSVILLE    CLOUDY    36  34  93 NE6       30.22F WCI  31          
NEW BERN       RAIN      37  32  82 NE10      30.27F WCI  30          
CHERRY POINT   LGT RAIN  38  35  89 NE13      30.25F WCI  30          
BEAUFORT       LGT RAIN  40  36  86 NE10      30.23F FOG     WCI  33  
JACKSONVILLE   LGT RAIN  37  34  87 NE12      30.24F WCI  30          
WILMINGTON     LGT RAIN  37  35  92 NE12G20   30.19F WCI  29          
$$